SL-16 DEB, 22454

Orbit data source: Space-Track

SL-16 DEB, 22454 is space debris in LEO originally from a launch on Fri, 25 Dec 1992 UTC launched from the Tyuratam Missile And Space Complex (TTMTR). Debris objects in space refer to the collection of defunct objects orbiting the Earth. Examples of debris include non-operational satellites, rocket bodies, and fragments generated from explosions, collisions, or faulty payload assembly.

Loading next visibility...
Identifier
22454, 1992-093ET
Orbit
LEO
Country
Flag of CISCIS
Related business
Manufacturer
Unknown
Mission
Spacecraft
Bus & Motor
Unknown
Mass
Unknown
Launch date (UTC)
1992-12-25 (33 years ago)
Launch vehicle
Unknown
Launch site
Tyuratam Missile And Space Complex (TTMTR)
Object type
Payload
Rocket body
Debris
Shape & HBR
Unknown shape, 0.1 m
Radar Cross Section
Small (<0.1 m²)

Expand to show TLE details & history
Last TLE update: 13 hours ago

TLE from 13 hours ago
0 SL-16 DEB
1 22454U 92093ET  25296.67050743  .00000361  00000-0  26504-3 0  9996
2 22454  70.9164 172.5200 0103983 159.7249 200.8042 13.99814656671871
Epoch: 2025-10-23T16:05Z
TLE epoch observation values (Epoch: 2025-10-23T16:05:31.841Z)
Latitude
-0.00007°
Longitude
-101.18912°
Altitude
967.615 km
Speed
7.332 km/s
True Right ascension
11h 30m 04s
True Declination
0° 00' 00"
Sunlit
Object was in daylight at epoch
Visualization orbit readout
Latitude
Unknown
Longitude
Unknown
Altitude
Unknown
Speed
Unknown
Apparent Right ascension
Unknown
Apparent Declination
Unknown
Sunlit
N/A
Visualization observer readout
Local Sidereal Time
00:08:37
Azimuth
Unknown
Elevation
Unknown
Doppler factor
Unknown
Orbital elements
Apogee altitude
967.986 km
Perigee altitude
816.784 km
Semi-major axis
7,270.522 km
Eccentricity
0.0104
Inclination
70.9164°
RAAN
172.52°
Arg. of periapsis
159.7249°
True anomaly
200.38607°
Mean anomaly
200.8042°
Eccentric anomaly
200.59463°
Mean motion
3.50102 °/min
Orbital period
102.83 mins
BSTAR
0.00026504
Loading maneuver chart data...
Computing Atmospheric mass density...
Loading historical data...
Loading historical data...
Loading historical data...
Loading historical data...
Loading historical data...
Loading historical data...
Loading historical data...

Documentation

Showing up to 5 results
|